Simultaneous Nadir Overpasses (SNOs) Predictions

Prediction of SNOs between AQUA and NPP Satellite Orbit:

Table of predicted SNOs for the next 14.0 days since TLE Epoch: 9/22/2017
Index Date (AQUA) Time (AQUA) Lat,Lon (AQUA) SZA (AQUA ) Date (NPP) Time (NPP) Lat,Lon (NPP) SZA (NPP ) Distance(km) Time Diff (sec)
1 09/24/2017 05:32:30 -74.37, 151.57 80.91 09/24/2017 05:31:57 -74.37, 151.52 80.87 1.45 33
2 09/24/2017 06:21:32 75.58, -37.63 97.80 09/24/2017 06:22:16 75.57, -37.72 97.78 2.88 44
3 09/26/2017 21:48:50 -74.84, -91.40 80.45 09/26/2017 21:48:43 -74.84, -91.43 80.44 1.16 7
4 09/26/2017 22:37:53 75.98, 79.44 98.32 09/26/2017 22:39:03 75.98, 79.37 98.27 1.91 70
5 09/29/2017 13:16:10 73.96,-145.28 101.44 09/29/2017 13:15:12 73.96,-145.28 101.49 0.16 58
6 09/29/2017 14:05:10 -75.35, 25.83 80.04 09/29/2017 14:05:29 -75.35, 25.82 80.05 0.23 19
7 10/02/2017 05:32:27 74.62, -27.84 101.70 10/02/2017 05:31:55 74.63, -27.79 101.72 1.64 32
8 10/02/2017 06:21:30 -75.85, 143.13 79.61 10/02/2017 06:22:15 -75.85, 143.18 79.66 1.35 45
9 10/04/2017 21:48:53 74.81, 88.52 102.46 10/04/2017 21:48:48 74.80, 88.46 102.48 1.89 5




NCC Satellite Simultaneous Nadir Overpasses (SNOs) Prediction Service
